[Iaude] MPEC K191: 2020 KK5 [a=0.93,e=0.64,i=15.3,H=21.8,PHA]

mpec at marsden.cfa.harvard.edu mpec at marsden.cfa.harvard.edu
Tue May 26 21:42:00 EDT 2020


M.P.E.C. 2020-K191                                 Issued 2020 May 27, 01:40 UT

     The Minor Planet Electronic Circulars contain information on unusual
         minor planets and routine data on comets.  They are published
    on behalf of Division F of the International Astronomical Union by the
          Minor Planet Center, Smithsonian Astrophysical Observatory,
                          Cambridge, MA 02138, U.S.A.

             Prepared using the Tamkin Foundation Computer Network

                              MPC at CFA.HARVARD.EDU
            URL https://www.minorplanetcenter.net/    ISSN 1523-6714

                                    2020 KK5                                    


Observations:
     K20K05K* C2020 05 21.44914116 57 53.464-06 11 04.22         21.72wUEK191F51
     K20K05K  C2020 05 21.46189016 57 50.433-06 11 03.26         21.83wUEK191F51
     K20K05K  C2020 05 21.47466016 57 47.368-06 11 02.38         21.63wUEK191F51
     K20K05K  C2020 05 21.48744016 57 44.345-06 11 01.33         21.95wUEK191F51
     K20K05K  C2020 05 25.41553416 41 32.507-06 07 59.29         20.97wUEK191F52
     K20K05K  C2020 05 25.43813316 41 26.325-06 07 59.01         21.53wUEK191F52
     K20K05K  C2020 05 25.44945616 41 23.279-06 07 58.62         21.06wUEK191F52
     K20K05K  C2020 05 26.31907 16 37 30.61 -06 07 53.4                VEK191I52
     K20K05K  C2020 05 26.32291 16 37 29.47 -06 07 52.9                VEK191I52
     K20K05K  C2020 05 26.32899 16 37 27.85 -06 07 52.9          20.8 GVEK191I52
     K20K05K  C2020 05 26.33282 16 37 26.76 -06 07 53.2                VEK191I52
     K20K05K !C2020 05 26.34109 16 37 24.61 -06 07 52.9          21.6 RtEK191673
     K20K05K !C2020 05 26.35761 16 37 20.00 -06 07 53.5                tEK191673
     K20K05K IC2020 05 27.03492216 34 14.25 -06 07 56.7          21.4 GVEK191L01
     K20K05K pC2020 05 27.03963116 34 12.92 -06 07 57.3          21.4 GVEK191L01
     K20K05K pC2020 05 27.04120316 34 12.47 -06 07 57.5          21.6 GVEK191L01

Observer details:
673 Table Mountain Observatory, Wrightwood.  Observer J. Pittichova.  1.0-m
    f/15 reflector + CCD.
F51 Pan-STARRS 1, Haleakala.  Observers J. Bulger, T. Lowe, A. Schultz, M.
    Willman.  Measurers K. Chambers, S. Chastel, T. de Boer, L. Denneau, J.
    Fairlamb, H. Flewelling, M. Huber, C.-C. Lin, E. Magnier, Y. Ramanjooloo,
    R. Wainscoat, R. Weryk.  1.8-m Ritchey-Chretien + CCD.
F52 Pan-STARRS 2, Haleakala.  Observers J. Bulger, T. Dukes, T. Lowe, A.
    Schultz, M. Willman.  Measurers K. Chambers, S. Chastel, T. de Boer, L.
    Denneau, J. Fairlamb, H. Flewelling, M. Huber, C.-C. Lin, E. Magnier, Y.
    Ramanjooloo, R. Wainscoat, R. Weryk.  1.8-m Ritchey-Chretien + CCD.
I52 Steward Observatory, Mt. Lemmon Station.  Observer D. C. Fuls.  Measurers
    E. J. Christensen, G. A. Farneth, D. C. Fuls, A. R. Gibbs, A. D. Grauer,
    H. Groeller, R. A. Kowalski, S. M. Larson, G. J. Leonard, T. A. Pruyne, D.
    Rankin, R. L. Seaman, F. C. Shelly, K. W. Wierzchos.  1.0-m reflector +
    CCD.
L01 Visnjan Observatory, Tican.  Observer K. Korlevic.  1.0-m f/2.9 reflector
    + CCD.

Orbital elements:
2020 KK5                                            PHA, Earth MOID = 0.0430 AU
Epoch 2020 May 31.0 TT = JDT 2459000.5                  Pike
M 242.18205              (2000.0)            P               Q
n   1.09424905     Peri.  325.15084     +0.64471081     -0.71827189
a   0.9326641      Node    83.18555     +0.74749577     +0.52074199
e   0.6364600      Incl.   15.27541     +0.15999387     +0.46142525
P   0.90           H   21.8           G   0.15           U   9
Residuals in seconds of arc
200521 F51  0.0   0.0     200525 F52  0.3+  0.2+    200526 673  0.1-  0.1-
200521 F51  0.1+  0.0     200526 I52  0.2+  0.4-    200527 L01  0.1+  0.5+
200521 F51  0.2-  0.0     200526 I52  0.9-  0.1+    200527 L01  0.1+  0.1-
200521 F51  0.2+  0.1+    200526 I52  0.2+  0.0     200527 L01  0.0   0.3-
200525 F52  0.2+  0.0     200526 I52  0.1-  0.3-
200525 F52  0.3-  0.0     200526 673  0.1+  0.5+

Ephemeris:
2020 KK5                 a,e,i = 0.93, 0.64, 15                  q = 0.3391
Date    TT    R. A. (2000) Decl.     Delta      r    Elong.  Phase     V
2020 04 27    17 52 36.4 -07 25 40   0.6662  1.5051   127.1    32.3    23.2
...
2020 05 12    17 27 48.7 -06 31 08   0.5178  1.4679   145.9    22.7    22.3
...
2020 05 20    17 03 18.4 -06 12 56   0.4532  1.4402   157.1    15.9    21.7
...
2020 05 26    16 38 56.8 -06 07 42   0.4147  1.4158   163.6    11.6    21.4
2020 05 27    16 34 24.5 -06 07 40   0.4092  1.4114   164.2    11.3    21.3
2020 05 28    16 29 44.6 -06 07 54   0.4041  1.4069   164.5    11.1    21.3
...
2020 06 03    15 59 29.4 -06 14 56   0.3796  1.3782   160.6    14.2    21.2
...
2020 06 11    15 15 49.6 -06 39 04   0.3648  1.3346   146.4    24.9    21.4
...
2020 06 26    14 01 47.9 -08 02 04   0.3830  1.2359   116.5    47.4    22.0

M. P. C. Staff               (C) Copyright 2020 MPC           M.P.E.C. 2020-K191




More information about the Iaude mailing list